Location: Biltmore Gardens
(41.6070°N, 83.4666°W)
Time: 14:13:23
(UTC+00:00)

SPOT 5 - Pass Details

Date: 14 July 2020
Orbit: 622 x 816 km, 98.3° (Epoch: 05 August)

Event Time Altitude Azimuth Distance (km) Brightness Sun altitude
Exits shadow 03:41:54 34° 203° (SSW) 1,160 3.6 -21.1°
Maximum altitude 03:43:40 53° 259° (W) 868 3.3 -21.3°
Drops below altitude 10° 03:48:13 10° 337° (NNW) 2,125 6.5 -21.7°
Sets 03:50:27 0° 342° (NNW) 3,016 7.5 -21.9°
